Preview of NWS' New Version of Forecast
This preview is not operational and should not be used for support decisions.

Regional Weather Roundup (RWR)

Issued by Philadelphia/Mt Holly (PHI)

                            
000
ASUS41 KPHI 190112
RWRPHI

REGIONAL WEATHER ROUNDUP
NATIONAL WEATHER SERVICE MOUNT HOLLY NJ
900 PM EDT WED SEP 18 2019

NOTE:  "FAIR" INDICATES FEW OR NO CLOUDS BELOW 12,000 FEET WITH NO
SIGNIFICANT WEATHER AND/OR OBSTRUCTIONS TO VISIBILITY.

 * = STATION DOES NOT REPORT PRECIPITATION (E.G. RAIN, SNOW, ETC.) 
        OR FOG.

NJZ015>026-190200-
SOUTHERN NEW JERSEY
  
CITY           SKY/WX    TMP DP  RH WIND       PRES   REMARKS
POMONA         FAIR      59  48  67 NE7       30.26R                  
WILDWOOD*      FAIR      63  51  65 NE9       30.26R                  
MILLVILLE      FAIR      58  50  75 E3        30.26R                  
WRIGHTSTOWN    FAIR      58  49  73 E3        30.27R                  
MOUNT HOLLY      N/A     58  50  75 CALM      30.27R                  
TRENTON        FAIR      58  50  75 SE5       30.27R                  

$$
NJZ001>014-190200-
NORTHERN NEW JERSEY
  
CITY           SKY/WX    TMP DP  RH WIND       PRES   REMARKS
SUSSEX         FAIR      52  46  80 CALM      30.29R                  
ANDOVER*         N/A     52  50  93 CALM      30.29R                  
MORRISTOWN     PTCLDY    54  50  87 N3        30.28R                  
NEWARK         PTCLDY    64  45  49 E9        30.28R                  
TETERBORO      FAIR      63  43  48 NE3       30.27R                  
CALDWELL       FAIR      61  47  59 NE3       30.29R                  
SOMERVILLE     FAIR      55  51  86 CALM      30.26R                  
ALLAIRE*       FAIR      61  48  62 E9        30.28R                  
TOMS RIVER*    FAIR      59  50  72 E6        30.28R                  

$$
PAZ043-044-047-054-055-060>062-066>071-190200-
EASTERN PENNSYLVANIA
  
CITY           SKY/WX    TMP DP  RH WIND       PRES   REMARKS
PHILADELPHIA   PTCLDY    62  50  64 E7        30.27R                  
NORTH PHILA    FAIR      64  49  57 E9        30.29R                  
BLUE BELL*     FAIR      56  52  86 E3        30.27R                  
DOYLESTOWN     FAIR      60  49  66 CALM      30.27R                  
QUAKERTOWN*    CLEAR     57  52  82 CALM      30.28                   
PERKASIE*      FAIR      54  54 100 CALM      30.28R                  
POTTSTOWN      FAIR      59  49  69 E3        30.28R                  
LANCASTER      FAIR      61  48  62 CALM      30.25R                  
COATESVILLE    FAIR      59  52  77 CALM      30.27R                  
WEST CHESTER   FAIR      61  50  67 CALM      30.27R                  
READING        FAIR      62  51  67 NE3       30.24R                  
ALLENTOWN      FAIR      59  46  62 NE7       30.26R                  
QN CITY/ALNTWN FAIR      63  46  55 E5        30.28R                  
MOUNT POCONO   FAIR      53  46  77 NE5       30.30R                  
HAZLETON       FAIR      55  46  71 E5        30.31R                  
LEHIGHTON      FAIR      52  50  93 CALM      30.28R                  
WILKES BARRE   FAIR      59  47  64 E7        30.28R                  

$$
DEZALL-MDZ008-012-015-019-020-190200-
DELAWARE AND EASTERN MARYLAND
  
CITY           SKY/WX    TMP DP  RH WIND       PRES   REMARKS
WILMINGTON     FAIR      64  53  67 E8        30.27R                  
DOVER          FAIR      62  51  66 E12       30.25R                  
CHESWOLD         N/A     63  54  72 E6        30.26R                  
GEORGETOWN     NOT AVBL                                               
EASTON         PTCLDY    64  55  72 E5        30.28R                  
STEVENSVILLE   FAIR      66  55  68 E8G18     30.24R                  
PATUXENT       FAIR      67  53  61 E17       30.23R                  
OCEAN CITY     MOCLDY    65  50  58 NE13G25   30.24R                  
WALLOPS ISLAND MOCLDY    65  53  65 NE17      30.24R                  
CAMBRIDGE      MOCLDY    63  54  72 E7        30.24S                  
SALISBURY      CLOUDY    63  52  67 E7        30.25R                  

$$
PAZ001-021-NYZ056-072-MDZ011-DCZ001-190200-
OTHER NEARBY LOCATIONS
  
CITY           SKY/WX    TMP DP  RH WIND       PRES   REMARKS
HARRISBURG     FAIR      66  48  52 E3        30.23S                  
STATE COLLEGE  CLEAR     61  45  55 NE6       30.27R                  
WILLIAMSPORT   FAIR      61  49  64 N7        30.24S                  
BINGHAMTON     FAIR      58  42  55 E3        30.29R                  
NEW YORK CITY  FAIR      61  46  57 VRB3      30.31R                  
BALTIMORE      FAIR      70  51  51 E10       30.23R                  
WASHINGTON DC  FAIR      70  52  52 E8        30.23R                  

$$